Погода в Досанге

Погода в Досанге : погода сейчас, прогноз погоды и архив. Всё, что Вы хотите узнать о погоде в Досанге!

Хотите узнать прогноз погоды в Досанге? Тогда Вам сюда: Погода в Досанге

Поиск расширенной информации на нашем сайте:

Другие новости

Новости СМИ2

Главная страница сайта

Новости сайта

03.07.2017

Напоминаем, что на нашем специализированном сайте Метеоцентр.Азия вы можете получить высокодетализированные автоматические прогнозы погоды по пунктам России, СНГ и мира в авиационном формате (включающие направление и скорость ветра, видимость, явления погоды, количество и форму облачности, нижнюю и верхнюю границу облачности).

Рекомендуем: Портал о строительстве http://fgupniikp.ru

Погода в Досанге - сегодня

Время (UTC), дата Ветер
(°,м/с) 
Видим.   Явления Облачность Т
(°С)
Тd
(°С)
f(%) Тe
(°С)
Pmin
(гПа)
dP
(гПа)
Po
(мм)
O2
(г/м3)
Тmin Tmax R s Состояние
почвы
06 19.09.17 130 (ЮВ) 8-11{12}  20000 м  пыльный позёмок  ясно 
+29.2 +11.8 34 +32  1017.7  0.1  765  276           
09 19.09.17 140 (ЮВ) 9-15{15}  4000 м  пыльная буря  ясно 
+33.7 +4.6 16 +34  1016.7  -0.9  764  273           
12 19.09.17 140 (ЮВ) 9-13{15}  4000 м  пыльная буря  ясно 
+33.1 +3 15 +33  1015.9  -0.9  763  274           
15 19.09.17 120 (ЮВ) 4{13}  20000 м    ясно 
+27.9 +9.3 31 +28  1016.2  0.4  764  278    +34.1       
18 19.09.17 120 (ЮВ) 10 км    ясно 
+21.4 +14.7 66 +29  1016.5  0.3  764  282           
21 19.09.17 090 (В) 10 км    ясно 
+17.5 +14.7 84 +26  1016  -0.5  764  286           
00 20.09.17 090 (В) 10 км    ясно 
+16.6 +14.6 88 +25  1015.7  -0.3  763  287           
03 20.09.17 090 (В) 20000 м    3/0 средняя 
[Ac trans]
+14.9 +12.8 87 +21  1015.9  0.2  764  289  +14.5        сухая 
06 20.09.17 120 (ЮВ) 6{10}  20000 м    1/0 средняя 
[Ac trans]
+29.3 +9.5 29 +29  1016.6  0.6  764  276           
09 20.09.17 160 (Ю) 7-11{12}  20000 м  пыльный позёмок  1/0 средняя 
[Ac lent]
+32.1 +5.8 19 +32  1016  -0.6  764  274           
12 20.09.17 150 (ЮВ) 6{15}  20000 м    ясно 
+32.8 +4.9 17 +33  1015.4  -0.6  763  274           
15 20.09.17 120 (ЮВ) 20000 м    3/0 средняя 
[Ac trans]
+27.4 +10.2 34 +28  1015.9  0.6  764  278    +33.4       
18 20.09.17 100 (В) 10 км    1/0 средняя 
[Ac trans]
+21.3 +15.5 70 +30  1016.7  0.8  764  282           
21 20.09.17 110 (В) 10 км    ясно 
+18.7 +14.5 77 +26  1016.6  -0.1  764  285           
00 21.09.17 090 (В) 10 км    ясно 
+17.5 +14.6 83 +26  1016.5  -0.1  764  286           
03 21.09.17 080 (В) 20000 м    ясно 
+14.9 +13.1 89 +21  1016.8  0.3  764  289  +14.5        сухая 
06 21.09.17 090 (В) 20000 м    ясно 
+28.3 +9.1 30 +28  1017.3  0.5  765  278           
09 21.09.17 090 (В) 20000 м    ясно 
+34.1 +0.6 12 +34  1016.4  -1  764  274           
12 21.09.17 140 (ЮВ) 5{10}  20000 м    ясно 
+33.9 +3.3 15 +34  1016  -0.4  764  273           
15 21.09.17 150 (ЮВ) 3{10}  20000 м    ясно 
+27.9 +7.3 27 +28  1015.9  764  278    +34.7       
18 21.09.17 090 (В) 10 км    ясно 
+21 +15 69 +29  1017.2  1.3  764  283           
21 21.09.17 070 (В) 10 км    ясно 
+15.5 +12.8 84 +21  1017  -0.1  764  289           
00 22.09.17 070 (В) 4000 м  дымка  ясно 
+13.8 +12 89 +18  1016.7  -0.3  764  291           
03 22.09.17 050 (СВ) 20000 м    ясно 
+14.4 +10.4 77 +16  1017.5  0.7  765  291  +13.2        сухая 
06 22.09.17 060 (СВ) 20000 м    ясно 
+27.1 +3.7 22 +27  1017.3  -0.2  765  280           
Время (UTC), дата Ветер
(°,м/с) 
Видим.   Явления Облачность Т
(°С)
Тd
(°С)
f(%) Тe
(°С)
Pmin
(гПа)
dP
(гПа)
Po
(мм)
O2
(г/м3)
Тmin Tmax R s Состояние
почвы

Для получения пояснительной информации подведите курсор к названию столбца.

ПОГОДА в Досанге - архив

Всё, что Вы хотите узнать о погоде в Досанге - удобно и подробно!

Выберите нужную дату (начиная с 1 января 2015* года) и нажмите кнопку "Найти".
Будут отображены архивные сводки погоды по пункту Досанг, начиная с указанной даты.


Отображать данные в формате CSV (для использования в таблицах Excel)


Внимание! Наш архив погоды предназначен исключительно для личного некоммерческого использования в познавательных целях. Если Вам необходимы официальные справки о состоянии погоды (для производственных, юридических, коммерческих и т.п. целей), обращайтесь в органы Росгидромета.

*Примечание: данная дата относится к архиву по метеостанциям СССР (Россия, СНГ, Балтия).
Архив по метеостанциям Зарубежной Европы и Азии (кроме Китая) хранится 10 дней, по другим регионам земного шара (Китай, Африка, Америка, Австралия, Океания) - 1 день.

Досанг - район местоположения метеостанции


Название, широта, долгота, высота метеостанции:
Досанг 46.9°ш. 47.9°д. -19 м над ур. моря [Российская Федерация]

Дополнительная информация

В oтличие oт бoльшинства пoгoдных сайтoв мы публикуем пoдрoбную метеoинфoрмацию в детальнoм прoфессиoнальнoм фoрмате.

Характеристики температуры и влажнoсти вoздуха измеряются на высoте 2 м в тени вдали oт зданий и деревьев.
Скoрoсть ветра измеряется на высoте 10 м (на урoвне рoста челoвека скoрoсть ветра ниже в 1.5-2 раза). Если метеoстанция нахoдится в гoрoде или в лесу, тo скoрoсть ветра занижена на 2-4 м/с пo сравнению с oткрытым местoм. Скoрoсть ветра над акватoриями крупных рек и oзёр, а также на вершинах хoлмoв на 2-5 м/с выше, чем в oбычных услoвиях.
Атмoсфернoе давление в разных тoчках местнoсти мoжет значительнo oтличаться oт давления на метеoстанции, в зависимoсти oт услoвий рельефа (при пoдъёме на 10 м давление пoнижается примернo на 1 мм рт.ст.).